Simultaneous Nadir Overpasses (SNOs) Predictions

Prediction of SNOs between METOP-B and NOAA-19 Satellite Orbit:

Table of predicted SNOs for the next 14.0 days since TLE Epoch: 2/18/2023
Index Date (METOP-B) Time (METOP-B) Lat,Lon (METOP-B) SZA (METOP-B ) Date (NOAA-19) Time (NOAA-19) Lat,Lon (NOAA-19) SZA (NOAA-19 ) Distance(km) Time Diff (sec)
1 02/18/2023 12:49:50 -80.93,-157.60 86.22 02/18/2023 12:48:35 -80.93,-157.68 86.24 1.40 75
2 02/18/2023 13:40:30 80.93, 9.89 93.80 02/18/2023 13:39:38 80.93, 9.95 93.78 1.13 52
3 02/18/2023 14:31:12 -80.92, 176.92 86.26 02/18/2023 14:30:34 -80.93, 176.97 86.26 1.52 38
4 02/18/2023 15:21:52 80.93, -15.59 93.76 02/18/2023 15:21:38 80.93, -15.76 93.74 3.11 14
5 02/18/2023 16:12:33 -80.93, 151.79 86.26 02/18/2023 16:12:33 -80.93, 151.63 86.27 2.88 0
6 02/18/2023 17:03:13 80.94, -40.71 93.76 02/18/2023 17:03:36 80.93, -40.73 93.76 0.99 23
7 02/18/2023 17:53:55 -80.92, 126.31 86.30 02/18/2023 17:54:32 -80.93, 126.28 86.28 0.89 37
8 02/18/2023 18:44:35 80.93, -66.19 93.72 02/18/2023 18:45:35 80.93, -66.07 93.74 2.12 60
9 02/18/2023 19:35:16 -80.93, 101.19 86.30 02/18/2023 19:36:30 -80.93, 101.31 86.26 2.22 74
10 03/01/2023 22:30:02 -80.92, 57.21 90.38 03/01/2023 22:28:51 -80.93, 57.26 90.40 1.18 71
11 03/01/2023 23:20:42 80.92,-135.38 89.62 03/01/2023 23:19:56 80.93,-135.55 89.59 2.98 46
12 03/02/2023 00:11:23 -80.93, 32.08 90.39 03/02/2023 00:10:50 -80.93, 31.90 90.41 3.15 33
13 03/02/2023 01:02:03 80.93,-160.52 89.62 03/02/2023 01:01:54 80.93,-160.53 89.61 0.56 9
14 03/02/2023 01:52:45 -80.92, 6.59 90.43 03/02/2023 01:52:49 -80.93, 6.54 90.43 1.02 4
15 03/02/2023 02:43:25 80.93, 173.99 89.57 03/02/2023 02:43:53 80.93, 174.11 89.59 2.20 28
16 03/02/2023 03:34:06 -80.93, -18.55 90.43 03/02/2023 03:34:47 -80.93, -18.44 90.41 1.93 41



Historial Predications of SNOs between METOP-B and NOAA-19
